GW3796 Weather Reports


Display with metric or nautical units.
time (UTC)temp
F
wind
direction
speed
MPH
gust
MPH
rain 1hr
in
rain 24hr
in
rain mn
in
humidity
%
barometer
mb
20260506033023 65 128 3.0 5.0 0.00 0.00 0.00 71 1009.0
20260506032042 66 45 2.0 4.0 0.00 0.00 0.00 72 1008.8
20260506031039 66 50 2.0 5.0 0.00 0.00 0.00 72 1008.7
20260506030044 67 32 2.0 5.0 0.00 0.00 0.00 71 1008.5
20260506025021 67 184 2.0 4.0 0.00 0.00 0.00 70 1008.5
20260506024018 67 142 2.0 4.0 0.00 0.00 0.00 70 1008.1
20260506023022 68 313 2.0 4.0 0.00 0.00 0.00 69 1008.0
20260506022051 68 112 2.0 4.0 0.00 0.00 0.00 69 1007.9
20260506021049 68 61 2.0 5.0 0.00 0.00 0.00 69 1007.7
20260506020043 69 291 3.0 7.0 0.00 0.00 0.00 68 1007.6
20260506015025 69 336 1.0 4.0 0.00 0.00 0.00 69 1007.1
20260506014023 69 225 2.0 3.0 0.00 0.00 0.00 68 1006.8
20260506013020 70 233 2.0 4.0 0.00 0.00 0.00 68 1006.8
20260506012019 70 18 2.0 4.0 0.00 0.00 0.00 68 1006.7
20260506011028 71 7 2.0 4.0 0.00 0.00 0.00 67 1006.6
20260506010026 72 341 2.0 5.0 0.00 0.00 0.00 66 1006.3
20260506005019 72 131 2.0 6.0 0.00 0.00 0.00 67 1006.0
20260506004022 73 16 1.0 3.0 0.00 0.00 0.00 66 1006.1
20260506003020 73 36 2.0 4.0 0.00 0.00 0.00 65 1005.6
20260506002049 74 274 3.0 6.0 0.00 0.00 0.00 64 1005.8
20260506001026 75 296 3.0 6.0 0.00 0.00 0.00 63 1005.3
20260506000041 77 179 4.0 7.0 0.00 0.00 0.00 61 1005.5
20260505235025 78 213 3.0 6.0 0.00 0.00 0.00 59 1005.4
20260505234020 78 279 3.0 4.0 0.00 0.00 0.00 58 1005.4
20260505233058 79 181 3.0 8.0 0.00 0.00 0.00 58 1005.3
20260505232030 80 259 2.0 4.0 0.00 0.00 0.00 57 1005.3
20260505231105 81 285 3.0 5.0 0.00 0.00 0.00 55 1005.2
20260505230020 82 254 3.0 5.0 0.00 0.00 0.00 54 1005.2
20260505225021 83 186 3.0 4.0 0.00 0.00 0.00 54 1005.1
20260505224039 85 279 3.0 6.0 0.00 0.00 0.00 53 1004.9
20260505223028 87 269 3.0 4.0 0.00 0.00 0.00 52 1004.9
20260505222046 89 242 3.0 7.0 0.00 0.00 0.00 46 1004.7
20260505221024 89 238 2.0 4.0 0.00 0.00 0.00 45 1004.7
20260505220019 88 89 2.0 4.0 0.00 0.00 0.00 45 1004.4
20260505215020 90 236 3.0 5.0 0.00 0.00 0.00 42 1004.6
20260505214029 90 179 2.0 3.0 0.00 0.00 0.00 43 1004.8
20260505213027 89 223 3.0 6.0 0.00 0.00 0.00 44 1004.7
20260505212025 92 225 3.0 7.0 0.00 0.00 0.00 43 1004.7
20260505211023 92 211 4.0 7.0 0.00 0.00 0.00 43 1004.9
20260505210021 93 204 6.0 8.0 0.00 0.00 0.00 42 1004.9
20260505205018 93 222 4.0 8.0 0.00 0.00 0.00 43 1005.0
20260505204028 92 208 6.0 10.0 0.00 0.00 0.00 43 1005.1
20260505203026 92 188 5.0 7.0 0.00 0.00 0.00 45 1005.2
20260505202024 90 191 5.0 9.0 0.00 0.00 0.00 47 1005.2
20260505201022 91 251 4.0 7.0 0.00 0.00 0.00 47 1005.4
20260505200021 90 194 6.0 11.0 0.00 0.00 0.00 47 1005.5
20260505195030 91 194 6.0 11.0 0.00 0.00 0.00 46 1005.5
20260505194047 91 207 5.0 8.0 0.00 0.00 0.00 48 1005.5
20260505193026 90 202 6.0 9.0 0.00 0.00 0.00 50 1005.4
20260505192022 90 194 5.0 8.0 0.00 0.00 0.00 51 1005.5
20260505191020 89 194 6.0 9.0 0.00 0.00 0.00 52 1005.5
20260505190052 88 211 7.0 10.0 0.00 0.00 0.00 53 1005.4
20260505185029 87 172 6.0 12.0 0.00 0.00 0.00 54 1005.4
20260505184028 86 205 7.0 11.0 0.00 0.00 0.00 56 1005.4
20260505183023 87 197 4.0 7.0 0.00 0.00 0.00 57 1005.4
20260505182021 86 182 6.0 10.0 0.00 0.00 0.00 57 1005.5
20260505181019 86 183 5.0 10.0 0.00 0.00 0.00 59 1005.3
20260505180028 85 179 5.0 9.0 0.00 0.00 0.00 59 1005.5
20260505175030 84 171 8.0 13.0 0.00 0.00 0.00 60 1005.6
20260505174025 85 200 5.0 9.0 0.00 0.00 0.00 61 1005.6
20260505173022 85 176 7.0 10.0 0.00 0.00 0.00 60 1005.6
20260505172020 86 197 4.0 8.0 0.00 0.00 0.00 60 1005.7
20260505171028 84 163 6.0 13.0 0.00 0.00 0.00 61 1005.6
20260505170027 84 168 6.0 9.0 0.00 0.00 0.00 61 1005.7
20260505165027 84 157 4.0 8.0 0.00 0.00 0.00 62 1005.6
20260505164027 84 154 5.0 8.0 0.00 0.00 0.00 62 1005.6
20260505163021 82 173 6.0 10.0 0.00 0.00 0.00 64 1005.6
20260505162019 81 203 5.0 8.0 0.00 0.00 0.00 65 1005.5
20260505161027 82 193 5.0 8.0 0.00 0.00 0.00 64 1005.5
20260505153020 78 174 5.0 10.0 0.00 0.00 0.00 70 1005.1
20260505152028 78 184 5.0 9.0 0.00 0.00 0.00 70 1005.2
20260505151026 78 154 5.0 8.0 0.00 0.00 0.00 69 1005.2
20260505124020 70 193 4.0 7.0 0.00 0.00 0.00 83 1004.6
20260505123027 70 147 4.0 7.0 0.00 0.00 0.00 84 1004.5
20260505122025 70 166 2.0 5.0 0.00 0.00 0.00 84 1004.3
20260505121022 69 177 3.0 5.0 0.00 0.00 0.00 85 1004.2
20260505120021 69 176 3.0 6.0 0.00 0.00 0.00 85 1004.1
20260505115021 69 130 3.0 7.0 0.00 0.00 0.00 85 1004.2
20260505114018 69 148 3.0 5.0 0.00 0.00 0.00 85 1004.1
20260505113026 69 164 3.0 6.0 0.00 0.00 0.00 85 1004.0
20260505112024 69 144 3.0 6.0 0.00 0.00 0.00 85 1004.0
20260505111041 69 117 4.0 9.0 0.00 0.00 0.00 85 1004.1
20260505102022 69 167 3.0 6.0 0.00 0.00 0.00 84 1004.1
20260505101020 69 133 4.0 7.0 0.00 0.00 0.00 84 1004.0
20260505100042 70 148 3.0 4.0 0.00 0.00 0.00 83 1004.2
20260505095019 70 142 4.0 9.0 0.00 0.00 0.00 83 1004.4
20260505094028 70 189 4.0 9.0 0.00 0.00 0.00 83 1004.2
20260505093023 70 163 5.0 8.0 0.00 0.00 0.00 82 1004.2
20260505092021 70 169 4.0 8.0 0.00 0.00 0.00 82 1004.4
20260505091019 70 198 5.0 8.0 0.00 0.00 0.00 81 1004.6
20260505090022 71 178 5.0 9.0 0.00 0.00 0.00 81 1004.7
20260505085026 71 248 5.0 11.0 0.00 0.00 0.00 80 1004.7
20260505084024 71 147 5.0 8.0 0.00 0.00 0.00 79 1004.7
20260505083022 72 94 5.0 10.0 0.00 0.00 0.00 78 1004.7
20260505082039 72 139 4.0 7.0 0.00 0.00 0.00 78 1004.7
20260505081023 72 161 5.0 8.0 0.00 0.00 0.00 77 1004.4
20260505080020 72 197 5.0 8.0 0.00 0.00 0.00 76 1004.7
20260505075024 72 153 5.0 9.0 0.00 0.00 0.00 75 1004.7
20260505074042 72 178 4.0 8.0 0.00 0.00 0.00 75 1004.9
20260505073020 72 185 5.0 7.0 0.00 0.00 0.00 74 1005.1
20260505072019 73 143 4.0 8.0 0.00 0.00 0.00 74 1005.4
20260505071102 73 101 5.0 9.0 0.00 0.00 0.00 73 1005.5
20260505070019 73 190 4.0 8.0 0.00 0.00 0.00 72 1005.5
20260505065024 73 144 5.0 9.0 0.00 0.00 0.00 72 1005.6
20260505064022 73 229 4.0 7.0 0.00 0.00 0.00 71 1005.8
20260505063019 74 193 5.0 11.0 0.00 0.00 0.00 71 1005.9
20260505062024 74 151 5.0 9.0 0.00 0.00 0.00 70 1006.0
20260505061101 74 162 5.0 10.0 0.00 0.00 0.00 70 1005.9
20260505060024 74 169 4.0 7.0 0.00 0.00 0.00 69 1005.8
20260505055024 75 199 5.0 11.0 0.00 0.00 0.00 68 1005.9
20260505054020 75 154 5.0 9.0 0.00 0.00 0.00 68 1005.8
20260505053026 75 134 5.0 9.0 0.00 0.00 0.00 68 1005.6
20260505052023 75 164 5.0 10.0 0.00 0.00 0.00 67 1005.7
20260505051020 76 151 4.0 8.0 0.00 0.00 0.00 67 1005.8
20260505041018 75 109 4.0 8.0 0.00 0.00 0.00 68 1006.0
20260505040033 75 16 5.0 9.0 0.00 0.00 0.00 68 1006.1
20260505035100 75 112 4.0 6.0 0.00 0.00 0.00 68 1006.0
20260505034029 75 139 5.0 8.0 0.00 0.00 0.00 68 1006.1